www.pogodaiklimat.ru

АРХИВ ПОГОДЫ в Бангоре

Время (UTC), дата Ветер
(напр.,м/с)
 
Видим.   Явления Облачность Т
(С)
Тd
(С)
f
(%)
Тe
(С)
Тes
(С)
Комфортность

P
(гПа)

Po
(гПа)
Тmin
(С)
Tmax
(С)
R
(мм)
SD
(см)
03:53 14.07 штиль  16 км    ясно  +12.8  +11.1  89  +12  +12    1024.3  1017.6         
04:53 14.07 штиль  16 км    ясно  +12.8  +11.1  89  +12  +12    1023.6  1016.9    +20.6     
05:53 14.07 штиль  16 км    ясно  +11.7  +11.1  96  +11  +11    1023.6  1016.6         
06:53 14.07 ЮВ  16 км    ясно  +11.1  +10.6  97  +9  +9    1023.3  1016.2         
07:53 14.07 штиль  16 км    8/0 7500 м
[верхняя] 
+12.2  +11.7  97  +12  +12    1022.9  1015.9         
08:53 14.07 штиль  16 км    8/0 7500 м
[верхняя] 
+12.2  +11.7  97  +12  +12    1023.0  1016.2         
09:53 14.07 штиль  16 км    10/0 7500 м
[верхняя] 
+14.4  +12.8  90  +14  +15    1023.0  1016.2         
10:53 14.07 Ю  16 км    8/0 7500 м
[верхняя] 
+17.2  +12.8  75  +17  +18    1023.3  1016.2         
11:53 14.07 Ю  16 км    8/0 7500 м
[верхняя] 
+18.9  +11.1  61  +20  +23    1022.6  1015.9         
12:53 14.07 Ю  16 км    8/0 4500 м
[средняя верхняя] 
+20.6  +11.1  54  +22  +26  комфорт  1021.8  1014.9         
13:53 14.07 Ю  16 км    8/0 7500 м
[верхняя] 
+21.1  +11.1  53  +23  +29  комфорт  1021.4  1014.5         
14:53 14.07 ЮЗ  16 км    8/0 4500 м
[средняя верхняя] 
+22.8  +10.6  46  +25  +30  комфорт  1020.9  1014.2         
15:53 14.07 Ю  16 км    8/0 4500 м
[средняя верхняя] 
+22.2  +11.1  49  +24  +28  комфорт  1020.3  1013.5         
16:53 14.07 Ю  16 км    10/0 3000 м
[средняя] 
+21.7  +10.6  49  +23  +26  комфорт  1020.2  1013.2         
17:53 14.07 Ю  16 км    10/0 2850 м
[средняя] 
+21.1  +10.0  49  +23  +24  комфорт  1019.8  1012.9         
18:53 14.07 Ю  16 км    10/0 2700 м
[средняя] 
+20.0  +11.1  57  +22  +24  комфорт  1019.6  1012.9         
19:53 14.07 Ю  16 км    10/0 2100 м
[средняя] 
+19.0  +10.0  56  +19  +21    1019.3  1012.5         
20:53 14.07 Ю  16 км    10/0 2100 м
[средняя] 
+18.9  +9.4  54  +19  +20    1018.7  1011.9         
21:53 14.07 Ю  16 км    10/2 1950 м
[средняя] 
+18.3  +8.9  54  +19  +19    1018.5  1011.9         
22:53 14.07 Ю  16 км    10/10 1350 м  +18.0  +11.0  64  +18  +18    1018.2  1011.5  +17.8       
23:53 14.07 Ю  16 км    10/0 2100 м
[средняя] 
+17.2  +10.6  65  +17  +17    1018.4  1011.5         
00:53 15.07 Ю  16 км    10/0 2100 м
[средняя] 
+16.7  +10.6  67  +16  +16    1018.6  1011.9         
01:53 15.07 Ю  16 км    10/0 2100 м
[средняя] 
+16.7  +11.7  72  +16  +16    1018.2  1011.5         
02:53 15.07 Ю  16 км    10/8 1650 м
[средняя] 
+16.1  +12.8  81  +15  +15    1017.5  1010.8         
03:53 15.07 Ю  16 км    10/8 1800 м
[средняя] 
+16.0  +13.0  82  +15  +15    1017.2  1010.5         
04:53 15.07 Ю  16 км    8/8 1200 м
[средняя] 
+16.0  +14.0  88  +15  +15    1017.0  1010.2  +15.6       
05:53 15.07 Ю  16 км    8/0 2100 м
[средняя] 
+15.6  +13.9  90  +16  +16    1016.5  1009.5         
06:53 15.07 ЮЗ  16 км    10/10 450 м  +15.6  +14.4  93  +15  +15    1016.6  1009.8         
07:53 15.07 Ю  16 км    10/10 930 м  +16.0  +14.0  88  +15  +15    1016.2  1009.2         
08:53 15.07 Ю  16 км    8/8 450 м  +16.0  +15.0  94  +15  +15    1015.7  1008.8         
09:53 15.07 Ю  16 км    8/8 660 м
[средняя] 
+17.0  +15.0  88  +17  +17    1016.0  1009.2         
10:53 15.07 Ю  16 км    10/10 300 м  +17.0  +15.0  88  +16  +16    1016.1  1009.2  +15.6       
11:53 15.07 Ю  16 км    10/10 300 м  +18.0  +14.0  77  +18  +18    1015.7  1008.8         
12:53 15.07 ЮВ  16 км    10/10 570 м  +20.0  +15.6  76  +23  +23  комфорт  1015.4  1008.5         
13:53 15.07 Ю  16 км    10/10 600 м  +22.0  +16.0  69  +26  +26  душно  1015.0  1008.2         
14:53 15.07 ЮЗ  16 км    10/10 690 м  +21.7  +16.7  73  +26  +26  душно  1015.1  1008.2         
15:36 15.07 Ю  16 км    10/8 600 м
[средняя] 
+23.3  +17.8  71  +29  +30  душно    1007.5         
15:53 15.07 ЮЗ  16 км    10/8 660 м
[средняя] 
+23.0  +18.0  73  +28  +29  душно  1014.2  1007.5         
16:53 15.07 Ю  14 км  слабый дождь  8/8 660 м  +21.7  +17.8  78  +26  +29  душно  1014.2  1007.5  +17.2  +23.9     
17:53 15.07 Ю  16 км    10/10 630 м  +23.0  +18.0  73  +28  +28  душно  1014.2  1007.5         
18:22 15.07 нст  16 км    8/8 690 м
[средняя] 
+23.3  +17.8  71  +29  +32  душно    1007.1         
18:53 15.07 Ю  16 км    8/8 780 м
[средняя] 
+25.0  +18.9  69  +30  +32  душно  1014.0  1007.1         
19:53 15.07 Ю  16 км    8/5 780 м
[средняя] 
+24.4  +18.3  69  +29  +31  душно  1013.9  1007.1         
20:53 15.07 Ю  16 км    8/2 900 м
[средняя] 
+23.0  +18.0  73  +28  +30  душно  1013.5  1006.8         
21:53 15.07 Ю  16 км    8/2 900 м
[средняя] 
+22.0  +18.0  78  +27  +27  душно  1014.1  1007.5         
22:53 15.07 Ю  16 км    8/2 900 м
[средняя] 
+21.0  +18.0  83  +25  +26  комфорт  1014.6  1007.8  +20.6  +25.0     
23:53 15.07 Ю  16 км    10/0 0 м
[средняя] 
+20.0  +17.2  84  +23  +23  комфорт  1014.8  1008.2         
00:53 16.07 Ю  16 км    10/0 0 м
[средняя] 
+19.4  +17.2  87  +22  +22  комфорт  1015.3  1008.5         

 

Местоположение метеостанции Bangor International Airport: широта 44.7972 долгота -68.8186 высота над уровнем моря 58 м.

В архиве по умолчанию представлена погода в Бангоре за последние 1-2 суток. Обновление информации о фактической погоде в базе происходит ежечасно! Архивные данные за месяц целиком и за предыдущие месяцы Вы можете получить, выбрав интересующий диапазон дат из раскрывающегося списка и нажав кнопку "Ввод!".

Внимание! Архив погоды МЕТАР в базе сайта в настоящее время начинается c 1 января 2013 г. Нет смысла пытаться выбрать более раннюю дату.

Внимание! Время в таблицах - всемирное. Для получения местного времени необходимо прибавить поправку, которая в Бангоре равна -5 ч.

Ветер - указаны скорость ветра в м/с и направление, откуда дует ветер: С - северный, СВ - северо-восточный, В - восточный, ЮВ - юго-восточный, Ю - южный, ЮЗ - юго-западный, З - западный, СЗ - северо-западный.
Видимость - горизонтальная дальность видимости в метрах или километрах. При видимости от 1 до 10 км при отсутствии осадков обычно наблюдается дымка, при ухудшении видимости до 1 км и менее - туман. В сухую погоду видимость может ухудшаться дымом, пылью или мглою.
Атмосферные явления - указаны явления, наблюдавшиеся в указанный момент времени.
Облачность - указаны через наклонную черту верхняя и нижняя облачность в баллах и высота нижней границы облаков в метрах. Внимание: облачность, как и прочие метеорологические величины в США измеряются автоматическими метеостанциями. Указанные значения в баллах носят условный характер и показывают процент времени, в течение которого, в среднем, лазерный луч высотомера отражался от облаков обратно.
T - Температура воздуха - температура, измеренная на высоте 2 м над землей.
Td - Температура точки росы - температура, при понижении до которой содержащийся в воздухе водяной пар достигнет насыщения.
f - Относительная влажность воздуха - влажноcть воздуха, измеренная на высоте 2 м над землей.
Te - Эффективная температура - температура, которую ощущает одетый по сезону человек в тени. Характеристика душности погоды. При расчете учитывается влияние влажности воздуха и скорости ветра на теплоощущения человека.
Tes - Эффективная температура на солнце - температура, которую ощущает человек, с поправкой на солнечный нагрев. Характеристика знойности погоды. Зависит от высоты солнца над горизонтом, облачности и скорости ветра. Ночью, в пасмурную погоду, а также при ветре 12 м/с и более поправка равна нулю.
P - Атмосферное давление - приведенное к уровню моря атмосферное давление.
Po - Атмосферное давление - измеренное на уровне метеостанции атмосферное давление.
Tmin - Минимальная температура - минимум температуры воздуха на высоте 2 м над землей.
Tmax - Максимальная температура - максимум температуры воздуха на высоте 2 м над землей.
R - Количество осадков - Количество выпавших осадков за 3 или 6 часов, мм.
SD - Снежный покров - Высота снежного покрова, см.